Location: Axtheid
(49.6213°N, 11.8205°E)
Time: 14:47:02
(UTC+00:00)

Cosmos 1862 - Pass Details

Date: 18 February 2020
Orbit: 538 x 557 km, 82.5° (Epoch: 27 March)

Event Time Altitude Azimuth Distance (km) Brightness Sun altitude
Rises 04:45:18 0° 352° (N) 2,709 6.8 -15.7°
Reaches altitude 10° 04:47:29 10° 356° (N) 1,811 5.9 -15.3°
Maximum altitude 04:51:26 63° 78° (ENE) 607 3.8 -14.7°
Drops below altitude 10° 04:55:21 10° 160° (SSE) 1,796 6.2 -14.0°
Sets 04:57:30 0° 164° (SSE) 2,683 7.1 -13.7°
